| time (UTC) | temp C | wind direction | speed KPH | gust KPH | rain 1hr cm | rain 24hr cm | rain mn cm | humidity % | barometer mb |
| 20260508090045 | 7 | 0 | 0.0 | 3.2 | 0.00 | 0.48 | 0.00 | 87 | 1016.8 |
| 20260508084535 | 7 | 0 | 0.0 | 0.0 | 0.00 | 0.48 | 0.00 | 92 | 1016.8 |
| 20260508083042 | 7 | 0 | 0.0 | 0.0 | 0.00 | 0.48 | 0.00 | 93 | 1016.7 |
| 20260508081540 | 7 | 0 | 0.0 | 0.0 | 0.00 | 0.48 | 0.00 | 93 | 1016.6 |
| 20260508080035 | 7 | 0 | 0.0 | 0.0 | 0.00 | 0.48 | 0.00 | 93 | 1016.5 |
| 20260508074542 | 7 | 0 | 0.0 | 0.0 | 0.00 | 0.53 | 0.00 | 93 | 1016.6 |
| 20260508073034 | 7 | 0 | 0.0 | 0.0 | 0.00 | 0.53 | 0.00 | 93 | 1016.5 |
| 20260508071549 | 8 | 0 | 0.0 | 0.0 | 0.00 | 0.53 | 0.00 | 93 | 1016.3 |
| 20260508070036 | 7 | 0 | 0.0 | 0.0 | 0.00 | 0.53 | 0.00 | 94 | 1016.3 |
| 20260508064538 | 7 | 0 | 0.0 | 0.0 | 0.00 | 0.69 | 0.00 | 93 | 1016.1 |
| 20260508063047 | 7 | 0 | 0.0 | 0.0 | 0.00 | 0.69 | 0.00 | 93 | 1016.0 |
| 20260508061541 | 7 | 0 | 0.0 | 0.0 | 0.00 | 0.69 | 0.00 | 93 | 1016.2 |
| 20260508060037 | 7 | 0 | 0.0 | 0.0 | 0.00 | 0.69 | 0.00 | 92 | 1016.2 |
| 20260508054535 | 8 | 0 | 0.0 | 0.0 | 0.00 | 0.71 | 0.00 | 92 | 1016.1 |
| 20260508053058 | 8 | 0 | 0.0 | 0.0 | 0.00 | 0.71 | 0.00 | 90 | 1016.0 |
| 20260508051535 | 8 | 0 | 0.0 | 0.0 | 0.00 | 0.71 | 0.00 | 90 | 1015.8 |
| 20260508050041 | 8 | 0 | 0.0 | 0.0 | 0.00 | 0.71 | 0.00 | 91 | 1015.8 |
| 20260508044540 | 8 | 0 | 0.0 | 0.0 | 0.00 | 0.74 | 0.00 | 92 | 1015.8 |
| 20260508043037 | 8 | 0 | 0.0 | 0.0 | 0.00 | 0.74 | 0.00 | 92 | 1015.5 |
| 20260508041558 | 9 | 0 | 0.0 | 0.0 | 0.00 | 0.74 | 0.00 | 92 | 1015.4 |
| 20260508040043 | 9 | 0 | 0.0 | 0.0 | 0.00 | 0.74 | 0.00 | 91 | 1015.4 |
| 20260508034541 | 10 | 0 | 0.0 | 0.0 | 0.00 | 0.79 | 0.74 | 90 | 1015.3 |
| 20260508033041 | 10 | 0 | 0.0 | 0.0 | 0.00 | 0.79 | 0.74 | 91 | 1015.3 |
| 20260508031540 | 10 | 0 | 0.0 | 0.0 | 0.00 | 0.79 | 0.74 | 92 | 1015.2 |
| 20260508030038 | 10 | 0 | 0.0 | 0.0 | 0.00 | 0.79 | 0.74 | 93 | 1015.0 |
| 20260508024538 | 10 | 0 | 0.0 | 0.0 | 0.00 | 0.86 | 0.74 | 93 | 1014.9 |
| 20260508023035 | 10 | 0 | 0.0 | 0.0 | 0.00 | 0.86 | 0.74 | 94 | 1014.9 |
| 20260508021541 | 10 | 0 | 0.0 | 0.0 | 0.00 | 0.86 | 0.74 | 94 | 1014.6 |
| 20260508020045 | 10 | 0 | 0.0 | 0.0 | 0.00 | 0.86 | 0.74 | 94 | 1014.3 |
| 20260508014540 | 11 | 0 | 0.0 | 0.0 | 0.00 | 0.89 | 0.74 | 94 | 1014.1 |
| 20260508013038 | 11 | 0 | 0.0 | 1.6 | 0.00 | 0.89 | 0.74 | 94 | 1013.8 |
| 20260508011540 | 11 | 0 | 0.0 | 0.0 | 0.00 | 0.89 | 0.74 | 94 | 1013.3 |
| 20260508010034 | 11 | 0 | 0.0 | 0.0 | 0.00 | 0.89 | 0.74 | 93 | 1013.2 |
| 20260508004534 | 12 | 0 | 0.0 | 0.0 | 0.00 | 0.97 | 0.74 | 93 | 1013.3 |
| 20260508003036 | 12 | 0 | 0.0 | 3.2 | 0.00 | 0.97 | 0.74 | 92 | 1013.0 |
| 20260508001542 | 12 | 0 | 0.0 | 0.0 | 0.00 | 0.97 | 0.74 | 92 | 1013.2 |
| 20260508000036 | 13 | 0 | 0.0 | 0.0 | 0.00 | 0.97 | 0.74 | 90 | 1012.9 |
| 20260507234543 | 13 | 0 | 0.0 | 0.0 | 0.00 | 0.97 | 0.74 | 89 | 1012.9 |
| 20260507233056 | 13 | 0 | 0.0 | 3.2 | 0.00 | 0.97 | 0.74 | 89 | 1012.7 |
| 20260507231541 | 13 | 46 | 0.0 | 3.2 | 0.00 | 0.97 | 0.74 | 88 | 1012.4 |
| 20260507230043 | 13 | 37 | 0.0 | 4.8 | 0.00 | 0.97 | 0.74 | 87 | 1012.2 |
| 20260507224548 | 14 | 18 | 1.6 | 9.7 | 0.00 | 0.97 | 0.74 | 87 | 1011.7 |
| 20260507223035 | 13 | 29 | 1.6 | 8.0 | 0.00 | 0.97 | 0.74 | 89 | 1011.6 |
| 20260507221544 | 13 | 30 | 1.6 | 6.4 | 0.00 | 0.97 | 0.74 | 88 | 1011.7 |
| 20260507220041 | 14 | 76 | 0.0 | 8.0 | 0.00 | 0.97 | 0.74 | 88 | 1011.6 |
| 20260507214537 | 13 | 28 | 3.2 | 11.3 | 0.00 | 0.97 | 0.74 | 88 | 1011.3 |
| 20260507213040 | 14 | 17 | 4.8 | 19.3 | 0.00 | 0.97 | 0.74 | 88 | 1011.3 |
| 20260507211537 | 13 | 33 | 3.2 | 19.3 | 0.00 | 0.97 | 0.74 | 90 | 1011.2 |
| 20260507210049 | 13 | 31 | 3.2 | 14.5 | 0.00 | 0.97 | 0.74 | 90 | 1011.2 |
| 20260507204535 | 13 | 360 | 1.6 | 9.7 | 0.00 | 0.97 | 0.74 | 91 | 1011.1 |
| 20260507203044 | 13 | 34 | 4.8 | 16.1 | 0.10 | 0.97 | 0.74 | 92 | 1011.0 |
| 20260507201540 | 13 | 51 | 4.8 | 24.1 | 0.10 | 0.97 | 0.74 | 92 | 1011.2 |
| 20260507200038 | 13 | 5 | 1.6 | 9.7 | 0.13 | 0.97 | 0.74 | 93 | 1011.1 |
| 20260507194607 | 13 | 13 | 3.2 | 12.9 | 0.13 | 0.97 | 0.74 | 92 | 1011.7 |
| 20260507193038 | 14 | 352 | 1.6 | 8.0 | 0.03 | 0.86 | 0.64 | 91 | 1011.4 |
| 20260507191541 | 15 | 14 | 3.2 | 17.7 | 0.03 | 0.86 | 0.64 | 89 | 1011.0 |
| 20260507190049 | 15 | 5 | 1.6 | 20.9 | 0.00 | 0.84 | 0.61 | 88 | 1010.9 |
| 20260507184540 | 15 | 75 | 1.6 | 16.1 | 0.00 | 0.84 | 0.61 | 88 | 1011.2 |
| 20260507183044 | 15 | 31 | 3.2 | 12.9 | 0.00 | 0.84 | 0.61 | 86 | 1011.0 |
| 20260507181537 | 16 | 60 | 3.2 | 11.3 | 0.00 | 0.84 | 0.61 | 87 | 1011.1 |
| 20260507180039 | 16 | 42 | 3.2 | 14.5 | 0.00 | 0.84 | 0.61 | 86 | 1011.0 |
| 20260507174553 | 17 | 5 | 4.8 | 12.9 | 0.00 | 0.84 | 0.61 | 84 | 1010.7 |
| 20260507173103 | 17 | 48 | 3.2 | 12.9 | 0.00 | 0.84 | 0.61 | 84 | 1010.9 |
| 20260507171545 | 17 | 13 | 3.2 | 16.1 | 0.00 | 0.84 | 0.61 | 84 | 1011.0 |
| 20260507170039 | 17 | 70 | 1.6 | 14.5 | 0.00 | 0.84 | 0.61 | 90 | 1011.1 |
| 20260507164547 | 17 | 57 | 3.2 | 9.7 | 0.00 | 0.84 | 0.61 | 89 | 1011.1 |
| 20260507163042 | 17 | 32 | 3.2 | 12.9 | 0.00 | 0.84 | 0.61 | 92 | 1010.9 |
| 20260507161556 | 17 | 16 | 3.2 | 14.5 | 0.00 | 0.84 | 0.61 | 91 | 1010.8 |
| 20260507160041 | 18 | 93 | 1.6 | 3.2 | 0.00 | 0.84 | 0.61 | 90 | 1010.8 |
| 20260507154542 | 18 | 305 | 0.0 | 3.2 | 0.00 | 0.84 | 0.61 | 92 | 1011.0 |
| 20260507153040 | 18 | 175 | 0.0 | 3.2 | 0.00 | 0.84 | 0.61 | 95 | 1011.0 |
| 20260507151536 | 17 | 186 | 0.0 | 3.2 | 0.00 | 0.84 | 0.61 | 95 | 1011.5 |
| 20260507150035 | 17 | 242 | 0.0 | 3.2 | 0.00 | 0.84 | 0.61 | 95 | 1011.7 |
| 20260507144546 | 17 | 0 | 0.0 | 4.8 | 0.00 | 0.84 | 0.61 | 95 | 1011.7 |
| 20260507143043 | 17 | 0 | 0.0 | 3.2 | 0.00 | 0.84 | 0.61 | 95 | 1011.2 |
| 20260507141551 | 17 | 0 | 0.0 | 3.2 | 0.00 | 0.84 | 0.61 | 96 | 1010.9 |
| 20260507140039 | 17 | 0 | 0.0 | 3.2 | 0.05 | 0.84 | 0.61 | 96 | 1011.1 |
| 20260507134536 | 16 | 0 | 0.0 | 3.2 | 0.08 | 0.84 | 0.61 | 96 | 1011.4 |
| 20260507133037 | 16 | 302 | 0.0 | 3.2 | 0.13 | 0.84 | 0.61 | 96 | 1011.2 |
| 20260507131541 | 16 | 0 | 0.0 | 3.2 | 0.23 | 0.84 | 0.61 | 96 | 1011.2 |
| 20260507130040 | 16 | 173 | 0.0 | 1.6 | 0.20 | 0.79 | 0.56 | 96 | 1011.1 |
| 20260507124540 | 16 | 0 | 0.0 | 3.2 | 0.23 | 0.76 | 0.53 | 96 | 1011.8 |
| 20260507123042 | 16 | 0 | 0.0 | 3.2 | 0.20 | 0.71 | 0.48 | 95 | 1012.5 |
| 20260507121541 | 16 | 0 | 0.0 | 3.2 | 0.13 | 0.61 | 0.38 | 95 | 1012.1 |
| 20260507120045 | 16 | 188 | 0.0 | 3.2 | 0.10 | 0.58 | 0.36 | 95 | 1011.9 |
| 20260507114543 | 16 | 0 | 0.0 | 0.0 | 0.05 | 0.53 | 0.30 | 95 | 1012.3 |
| 20260507113047 | 16 | 0 | 0.0 | 3.2 | 0.03 | 0.51 | 0.28 | 95 | 1011.9 |
| 20260507111541 | 16 | 0 | 0.0 | 0.0 | 0.00 | 0.48 | 0.25 | 95 | 1011.7 |
| 20260507110040 | 16 | 0 | 0.0 | 3.2 | 0.00 | 0.48 | 0.25 | 95 | 1011.3 |
| 20260507104536 | 16 | 0 | 0.0 | 3.2 | 0.00 | 0.48 | 0.25 | 95 | 1011.5 |
| 20260507103036 | 16 | 0 | 0.0 | 3.2 | 0.00 | 0.48 | 0.25 | 95 | 1011.3 |
| 20260507101542 | 16 | 213 | 0.0 | 3.2 | 0.00 | 0.48 | 0.25 | 95 | 1011.1 |
| 20260507100043 | 16 | 175 | 0.0 | 3.2 | 0.00 | 0.48 | 0.25 | 95 | 1011.4 |
| 20260507094544 | 16 | 0 | 0.0 | 4.8 | 0.00 | 0.48 | 0.25 | 95 | 1011.4 |
| 20260507093037 | 16 | 188 | 0.0 | 3.2 | 0.00 | 0.48 | 0.25 | 95 | 1011.5 |
| 20260507091536 | 16 | 0 | 0.0 | 0.0 | 0.00 | 0.48 | 0.25 | 95 | 1011.2 |